Weather History for Fergus Falls, MN

Change the Weather History Date:

Tuesday, October 8, 2013

  Actual Average Record
Temperature  
Mean Temperature 63 °F -  
Max Temperature 73 °F 57 °F 84 °F (2003)
Min Temperature 53 °F 38 °F 21 °F (2000)
Degree Days  
Heating Degree Days 2    
Growing Degree Days 13 (Base 50)    
Moisture  
Dew Point 43 °F    
Average Humidity 52    
Maximum Humidity 72    
Minimum Humidity 35    
Precipitation  
Precipitation 0.00 in - - ()
Sea Level Pressure  
Sea Level Pressure 29.71 in    
Wind  
Wind Speed 13 mph (South)    
Max Wind Speed 21 mph    
Max Gust Speed 25 mph    
Visibility 10 miles    
Events      
Averages and records for this station are not official NWS values.
T = Trace of Precipitation, MM = Missing Value Source: NWS Daily Summary

Daily Weather History Graph

Daily Weather History Graph

Search for Another Location

Airport:

Trip Planner

Search our weather history database for the weather conditions in past years. The results will help you decide how hot, cold, wet, or windy it might be!

Date:

Astronomy

Oct. 08, 2013 Rise Set
Actual Time 7:32 AM CDT 6:50 PM CDT
Civil Twilight 7:02 AM CDT 7:20 PM CDT
Nautical Twilight 6:27 AM CDT 7:55 PM CDT
Astronomical Twilight 5:52 AM CDT 8:30 PM CDT
Moon 11:41 AM CDT (10/8) 9:14 PM CDT (10/8)
Length of Visible Light 12h 17m
Length of Day
11h 17m
Waxing Crescent, 16% of the Moon is Illuminated
Oct 8
Waxing Crescent
Oct 11
First Quarter
Oct 18
Full
Oct 26
Last Quarter
Nov 3
New

Hourly Weather History & Observations

Time (CDT) Temp. Dew Point Humidity Pressure Visibility Wind Dir Wind Speed Gust Speed Precip Events Conditions
12:13 AM 53.6 °F 37.4 °F 54% 29.85 in 10.0 mi SSE 11.5 mph - N/A   Clear
12:33 AM 53.6 °F 37.4 °F 54% 29.84 in 10.0 mi SSE 13.8 mph - N/A   Clear
12:53 AM 53.6 °F 39.2 °F 58% 29.83 in 10.0 mi SSE 12.7 mph - N/A   Clear
1:13 AM 53.6 °F 39.2 °F 58% 29.83 in 10.0 mi SSE 11.5 mph 18.4 mph N/A   Clear
1:33 AM 53.6 °F 39.2 °F 58% 29.82 in 10.0 mi SSE 12.7 mph - N/A   Clear
1:53 AM 53.6 °F 39.2 °F 58% 29.81 in 10.0 mi SSE 11.5 mph - N/A   Clear
2:13 AM 53.6 °F 39.2 °F 58% 29.81 in 10.0 mi SSE 12.7 mph - N/A   Clear
2:33 AM 53.6 °F 39.2 °F 58% 29.80 in 10.0 mi SSE 12.7 mph - N/A   Clear
2:53 AM 53.6 °F 41.0 °F 62% 29.80 in 10.0 mi SSE 13.8 mph - N/A   Clear
3:13 AM 53.6 °F 39.2 °F 58% 29.78 in 10.0 mi SSE 13.8 mph - N/A   Clear
3:33 AM 53.6 °F 39.2 °F 58% 29.76 in 10.0 mi SSE 13.8 mph - N/A   Clear
3:53 AM 53.6 °F 41.0 °F 62% 29.76 in 10.0 mi SSE 15.0 mph - N/A   Clear
4:13 AM 55.4 °F 41.0 °F 58% 29.75 in 10.0 mi SSE 17.3 mph - N/A   Clear
4:33 AM 55.4 °F 41.0 °F 58% 29.73 in 10.0 mi SE 17.3 mph - N/A   Clear
4:53 AM 55.4 °F 41.0 °F 58% 29.72 in 10.0 mi SSE 16.1 mph - N/A   Clear
5:13 AM 55.4 °F 41.0 °F 58% 29.72 in 10.0 mi SSE 15.0 mph - N/A   Clear
5:33 AM 55.4 °F 41.0 °F 58% 29.71 in 10.0 mi SSE 15.0 mph - N/A   Clear
5:53 AM 53.6 °F 41.0 °F 62% 29.71 in 10.0 mi SSE 15.0 mph - N/A   Clear
6:13 AM 53.6 °F 41.0 °F 62% 29.70 in 10.0 mi SSE 13.8 mph - N/A   Clear
6:33 AM 53.6 °F 41.0 °F 62% 29.70 in 10.0 mi SSE 13.8 mph - N/A   Clear
6:53 AM 53.6 °F 41.0 °F 62% 29.69 in 10.0 mi SSE 13.8 mph - N/A   Clear
7:13 AM 53.6 °F 39.2 °F 58% 29.69 in 10.0 mi SSE 12.7 mph - N/A   Clear
7:33 AM 53.6 °F 39.2 °F 58% 29.69 in 10.0 mi South 15.0 mph - N/A   Clear
7:53 AM 55.4 °F 39.2 °F 54% 29.68 in 10.0 mi SSE 16.1 mph 24.2 mph N/A   Clear
8:13 AM 53.6 °F 41.0 °F 62% 29.68 in 10.0 mi South 16.1 mph 19.6 mph N/A   Clear
8:33 AM 55.4 °F 41.0 °F 58% 29.67 in 10.0 mi SSE 15.0 mph 20.7 mph N/A   Clear
8:53 AM 55.4 °F 41.0 °F 58% 29.68 in 10.0 mi SSE 15.0 mph 19.6 mph N/A   Clear
9:13 AM 57.2 °F 42.8 °F 59% 29.68 in 10.0 mi South 16.1 mph - N/A   Clear
9:33 AM 59.0 °F 42.8 °F 55% 29.68 in 10.0 mi South 16.1 mph - N/A   Clear
9:53 AM 60.8 °F 42.8 °F 52% 29.68 in 10.0 mi South 15.0 mph - N/A   Clear
10:13 AM 62.6 °F 42.8 °F 48% 29.67 in 10.0 mi South 11.5 mph 20.7 mph N/A   Clear
10:34 AM 64.4 °F 42.8 °F 45% 29.67 in 10.0 mi South 15.0 mph 21.9 mph N/A   Clear
10:53 AM 64.4 °F 42.8 °F 45% 29.66 in 10.0 mi South 16.1 mph - N/A   Clear
11:13 AM 64.4 °F 42.8 °F 45% 29.67 in 10.0 mi South 13.8 mph 20.7 mph N/A   Clear
11:34 AM 66.2 °F 44.6 °F 46% 29.66 in 10.0 mi South 16.1 mph 19.6 mph N/A   Clear
11:53 AM 68.0 °F 42.8 °F 40% 29.66 in 10.0 mi SSW 16.1 mph 25.3 mph N/A   Clear
12:13 PM 69.8 °F 42.8 °F 38% 29.66 in 10.0 mi SSW 19.6 mph - N/A   Clear
12:34 PM 69.8 °F 42.8 °F 38% 29.65 in 10.0 mi South 20.7 mph 25.3 mph N/A   Clear
12:53 PM 69.8 °F 42.8 °F 38% 29.66 in 10.0 mi SSW 17.3 mph - N/A   Clear
1:13 PM 68.0 °F 42.8 °F 40% 29.66 in 10.0 mi SSW 13.8 mph - N/A   Clear
1:34 PM 68.0 °F 42.8 °F 40% 29.65 in 10.0 mi SSW 15.0 mph 24.2 mph N/A   Clear
1:53 PM 69.8 °F 42.8 °F 38% 29.65 in 10.0 mi SSW 16.1 mph - N/A   Clear
2:13 PM 69.8 °F 44.6 °F 40% 29.65 in 10.0 mi SSW 13.8 mph - N/A   Clear
2:34 PM 69.8 °F 44.6 °F 40% 29.65 in 10.0 mi SSW 11.5 mph 19.6 mph N/A   Clear
2:53 PM 69.8 °F 44.6 °F 40% 29.65 in 10.0 mi SW 10.4 mph - N/A   Clear
3:13 PM 69.8 °F 44.6 °F 40% 29.65 in 10.0 mi SSW 10.4 mph 17.3 mph N/A   Clear
3:33 PM 69.8 °F 44.6 °F 40% 29.65 in 10.0 mi SSW 10.4 mph - N/A   Clear
3:53 PM 71.6 °F 44.6 °F 38% 29.65 in 10.0 mi South 8.1 mph - N/A   Clear
4:13 PM 73.4 °F 44.6 °F 36% 29.65 in 10.0 mi SSW 12.7 mph 18.4 mph N/A   Clear
4:33 PM 71.6 °F 42.8 °F 35% 29.66 in 10.0 mi SSW 11.5 mph - N/A   Clear
4:53 PM 71.6 °F 44.6 °F 38% 29.65 in 10.0 mi SSW 11.5 mph - N/A   Clear
5:13 PM 71.6 °F 44.6 °F 38% 29.66 in 10.0 mi SSW 8.1 mph - N/A   Clear
5:33 PM 71.6 °F 46.4 °F 41% 29.67 in 10.0 mi SW 8.1 mph - N/A   Clear
5:53 PM 71.6 °F 44.6 °F 38% 29.67 in 10.0 mi SW 10.4 mph - N/A   Clear
6:13 PM 69.8 °F 46.4 °F 43% 29.68 in 10.0 mi SW 6.9 mph - N/A   Clear
6:33 PM 66.2 °F 46.4 °F 49% 29.69 in 10.0 mi WSW 3.5 mph - N/A   Clear
6:53 PM 66.2 °F 46.4 °F 49% 29.69 in 10.0 mi SSW 3.5 mph - N/A   Clear
7:13 PM 62.6 °F 46.4 °F 55% 29.70 in 10.0 mi South 5.8 mph - N/A   Clear
7:33 PM 62.6 °F 46.4 °F 55% 29.71 in 10.0 mi SSE 4.6 mph - N/A   Clear
7:53 PM 62.6 °F 46.4 °F 55% 29.72 in 10.0 mi SSE 4.6 mph - N/A   Clear
8:13 PM 60.8 °F 46.4 °F 59% 29.72 in 10.0 mi South 8.1 mph - N/A   Clear
8:33 PM 60.8 °F 44.6 °F 55% 29.73 in 10.0 mi South 5.8 mph - N/A   Clear
8:53 PM 62.6 °F 44.6 °F 52% 29.73 in 10.0 mi SE 4.6 mph - N/A   Clear
9:13 PM 60.8 °F 44.6 °F 55% 29.73 in 10.0 mi SSE 5.8 mph - N/A   Clear
9:33 PM 57.2 °F 46.4 °F 67% 29.74 in 10.0 mi SSE 9.2 mph - N/A   Clear
9:53 PM 57.2 °F 46.4 °F 67% 29.75 in 10.0 mi SSE 8.1 mph - N/A   Clear
10:13 PM 57.2 °F 46.4 °F 67% 29.75 in 10.0 mi SSE 8.1 mph - N/A   Clear
10:33 PM 57.2 °F 46.4 °F 67% 29.76 in 10.0 mi SSE 8.1 mph - N/A   Clear
10:53 PM 55.4 °F 46.4 °F 72% 29.77 in 10.0 mi South 6.9 mph - N/A   Clear
11:13 PM 57.2 °F 46.4 °F 67% 29.77 in 10.0 mi South 6.9 mph - N/A   Clear
11:33 PM 57.2 °F 46.4 °F 67% 29.78 in 10.0 mi South 8.1 mph - N/A   Clear
11:53 PM 59.0 °F 46.4 °F 63% 29.78 in 10.0 mi South 9.2 mph - N/A   Clear